FW9909 Weather Reports


Display with metric or nautical units.
time (UTC)temp
F
wind
direction
speed
MPH
gust
MPH
rain 1hr
in
rain 24hr
in
rain mn
in
humidity
%
barometer
mb
20260906044516 82 39 2.0 3.0 0.00 0.00 0.00 60 1013.9
20260906043535 82 41 1.0 3.0 0.00 0.00 0.00 59 1014.0
20260906042533 83 45 2.0 3.0 0.00 0.00 0.00 59 1014.1
20260906042025 82 34 2.0 3.0 0.00 0.00 0.00 60 1014.1
20260906041104 82 39 1.0 2.0 0.00 0.00 0.00 60 1014.1
20260906040022 83 38 2.0 3.0 0.00 0.00 0.00 60 1013.9
20260906035020 83 40 2.0 3.0 0.00 0.00 0.00 60 1014.0
20260906034018 83 45 2.0 3.0 0.00 0.00 0.00 60 1014.0
20260906033016 83 42 2.0 3.0 0.00 0.00 0.00 60 1013.9
20260906032034 83 59 1.0 2.0 0.00 0.00 0.00 59 1013.8
20260906031032 84 37 2.0 3.0 0.00 0.00 0.00 59 1013.9
20260906030031 84 45 2.0 3.0 0.00 0.00 0.00 59 1013.8
20260906025029 85 35 0.0 2.0 0.00 0.00 0.00 58 1013.7
20260906024027 86 60 1.0 3.0 0.00 0.00 0.00 56 1013.6
20260906023025 86 55 2.0 4.0 0.00 0.00 0.00 55 1013.4
20260906022023 86 45 2.0 4.0 0.00 0.00 0.00 54 1013.3
20260906021021 87 42 2.0 4.0 0.00 0.00 0.00 53 1013.2
20260906020019 87 54 3.0 6.0 0.00 0.00 0.00 52 1013.0
20260906015037 88 38 2.0 4.0 0.00 0.00 0.00 51 1012.9
20260906014035 89 27 2.0 5.0 0.00 0.00 0.00 50 1012.8
20260906013034 90 42 3.0 6.0 0.00 0.00 0.00 48 1012.7
20260906012052 91 35 2.0 4.0 0.00 0.00 0.00 47 1012.7
20260906011030 91 37 3.0 7.0 0.00 0.00 0.00 45 1012.7
20260906010028 92 26 1.0 2.0 0.00 0.00 0.00 45 1012.5
20260906005026 92 16 1.0 2.0 0.00 0.00 0.00 44 1012.5
20260906004025 93 21 2.0 3.0 0.00 0.00 0.00 43 1012.5
20260906003022 94 29 2.0 4.0 0.00 0.00 0.00 42 1012.5
20260906002021 95 33 3.0 4.0 0.00 0.00 0.00 40 1012.4
20260906001019 96 33 3.0 6.0 0.00 0.00 0.00 37 1012.5
20260906000017 97 4 0.0 1.0 0.00 0.00 0.00 34 1012.5
20260905235035 98 7 0.0 2.0 0.00 0.00 0.00 34 1012.4
20260905234033 98 10 0.0 2.0 0.00 0.00 0.00 33 1012.3
20260905233031 99 18 1.0 2.0 0.00 0.00 0.00 32 1012.4
20260905232029 100 29 1.0 2.0 0.00 0.00 0.00 31 1012.4
20260905231027 101 325 1.0 4.0 0.00 0.00 0.00 30 1012.4
20260905230106 102 338 2.0 5.0 0.00 0.00 0.00 29 1012.3
20260905225024 103 356 1.0 4.0 0.00 0.00 0.00 29 1012.3
20260905224022 102 14 3.0 5.0 0.00 0.00 0.00 29 1012.2
20260905223020 104 1 1.0 2.0 0.00 0.00 0.00 28 1012.2
20260905222020 104 305 3.0 5.0 0.00 0.00 0.00 29 1012.3
20260905221016 104 286 2.0 4.0 0.00 0.00 0.00 29 1012.3
20260905220034 105 27 2.0 6.0 0.00 0.00 0.00 29 1012.5
20260905215053 106 337 2.0 4.0 0.00 0.00 0.00 29 1012.5
20260905214031 105 284 2.0 5.0 0.00 0.00 0.00 30 1012.5
20260905213029 102 328 1.0 4.0 0.00 0.00 0.00 31 1012.6
20260905212027 102 349 2.0 4.0 0.00 0.00 0.00 32 1012.8
20260905211025 103 35 2.0 5.0 0.00 0.00 0.00 32 1012.9
20260905210023 104 58 2.0 5.0 0.00 0.00 0.00 31 1013.2
20260905205021 104 32 2.0 5.0 0.00 0.00 0.00 32 1013.3
20260905204019 104 353 2.0 5.0 0.00 0.00 0.00 31 1013.5
20260905203017 104 281 2.0 5.0 0.00 0.00 0.00 32 1013.6
20260905202016 104 301 3.0 6.0 0.00 0.00 0.00 32 1013.7
20260905201034 103 359 1.0 3.0 0.00 0.00 0.00 33 1013.9
20260905200032 101 41 3.0 6.0 0.00 0.00 0.00 34 1014.0
20260905195030 104 3 3.0 6.0 0.00 0.00 0.00 33 1014.1
20260905194028 103 272 2.0 6.0 0.00 0.00 0.00 33 1014.2
20260905193027 103 167 2.0 7.0 0.00 0.00 0.00 33 1014.3
20260905192024 101 287 2.0 4.0 0.00 0.00 0.00 35 1014.3
20260905191023 102 23 3.0 6.0 0.00 0.00 0.00 35 1014.5
20260905190021 101 150 2.0 5.0 0.00 0.00 0.00 36 1014.9
20260905185019 100 345 3.0 6.0 0.00 0.00 0.00 37 1015.0
20260905184017 99 44 4.0 6.0 0.00 0.00 0.00 38 1015.1
20260905183035 98 20 3.0 7.0 0.00 0.00 0.00 39 1015.0
20260905182033 99 76 3.0 5.0 0.00 0.00 0.00 37 1015.2
20260905181031 99 196 1.0 3.0 0.00 0.00 0.00 36 1015.5
20260905180030 101 13 4.0 9.0 0.00 0.00 0.00 37 1015.5
20260905175048 100 307 2.0 5.0 0.00 0.00 0.00 37 1015.6
20260905174046 98 1 3.0 7.0 0.00 0.00 0.00 39 1015.8
20260905173024 98 309 3.0 6.0 0.00 0.00 0.00 40 1015.9
20260905172022 97 17 3.0 6.0 0.00 0.00 0.00 42 1016.1
20260905171020 96 333 2.0 5.0 0.00 0.00 0.00 43 1016.2
20260905170018 97 358 3.0 5.0 0.00 0.00 0.00 43 1016.3
20260905165016 97 21 3.0 6.0 0.00 0.00 0.00 43 1016.3
20260905164034 96 10 3.0 6.0 0.00 0.00 0.00 43 1016.3
20260905163033 96 354 3.0 5.0 0.00 0.00 0.00 44 1016.4
20260905162031 97 335 3.0 5.0 0.00 0.00 0.00 44 1016.5
20260905161049 95 358 2.0 5.0 0.00 0.00 0.00 45 1016.5
20260905160047 95 10 3.0 6.0 0.00 0.00 0.00 46 1016.4
20260905155025 95 14 3.0 7.0 0.00 0.00 0.00 46 1016.5
20260905154023 94 2 2.0 6.0 0.00 0.00 0.00 48 1016.6
20260905153042 93 314 2.0 4.0 0.00 0.00 0.00 50 1016.4
20260905152019 92 317 3.0 6.0 0.00 0.00 0.00 50 1016.5
20260905151017 92 250 3.0 4.0 0.00 0.00 0.00 50 1016.4
20260905150016 91 2 2.0 5.0 0.00 0.00 0.00 52 1016.3
20260905145054 89 295 1.0 3.0 0.00 0.00 0.00 55 1016.2
20260905144052 89 265 2.0 4.0 0.00 0.00 0.00 56 1016.2
20260905143030 88 313 2.0 4.0 0.00 0.00 0.00 56 1016.2
20260905142028 87 341 2.0 4.0 0.00 0.00 0.00 58 1016.1
20260905141026 86 283 1.0 3.0 0.00 0.00 0.00 59 1016.1
20260905140044 85 260 2.0 4.0 0.00 0.00 0.00 61 1016.1
20260905135103 83 281 1.0 4.0 0.00 0.00 0.00 64 1016.1
20260905134041 82 287 2.0 5.0 0.00 0.00 0.00 66 1016.2
20260905133019 81 248 2.0 5.0 0.00 0.00 0.00 68 1016.1
20260905132037 80 230 2.0 4.0 0.00 0.00 0.00 71 1016.0
20260905131035 79 12 3.0 5.0 0.00 0.00 0.00 73 1015.9
20260905130033 77 143 1.0 3.0 0.00 0.00 0.00 75 1015.8
20260905125031 75 135 2.0 4.0 0.00 0.00 0.00 79 1015.7
20260905124029 74 82 2.0 3.0 0.00 0.00 0.00 82 1015.7
20260905123028 73 86 2.0 4.0 0.00 0.00 0.00 82 1015.8
20260905122026 73 75 2.0 3.0 0.00 0.00 0.00 82 1015.5
20260905121044 73 56 1.0 3.0 0.00 0.00 0.00 82 1015.5
20260905120022 73 79 2.0 4.0 0.00 0.00 0.00 81 1015.4
20260905115020 73 106 2.0 4.0 0.00 0.00 0.00 81 1015.4
20260905114038 73 124 2.0 4.0 0.00 0.00 0.00 82 1015.2
20260905113016 73 39 1.0 3.0 0.00 0.00 0.00 82 1015.2
20260905112034 73 20 3.0 6.0 0.00 0.00 0.00 81 1015.0
20260905111033 74 60 2.0 4.0 0.00 0.00 0.00 79 1015.1
20260905110031 74 110 2.0 4.0 0.00 0.00 0.00 78 1015.1
20260905105029 74 74 1.0 4.0 0.00 0.00 0.00 78 1015.1
20260905104027 74 29 4.0 7.0 0.00 0.00 0.00 78 1015.1
20260905103045 75 102 2.0 4.0 0.00 0.00 0.00 78 1015.0
20260905102023 75 77 3.0 4.0 0.00 0.00 0.00 77 1015.2
20260905101041 75 78 1.0 4.0 0.00 0.00 0.00 77 1015.1
20260905100039 75 121 3.0 4.0 0.00 0.00 0.00 77 1015.0
20260905095038 75 76 2.0 4.0 0.00 0.00 0.00 76 1015.0
20260905094036 75 54 2.0 4.0 0.00 0.00 0.00 76 1014.9
20260905093034 75 60 3.0 4.0 0.00 0.00 0.00 77 1014.8
20260905092032 75 68 1.0 2.0 0.00 0.00 0.00 77 1014.8
20260905091030 74 83 1.0 2.0 0.00 0.00 0.00 78 1014.8
20260905090028 75 47 1.0 2.0 0.00 0.00 0.00 78 1014.7
20260905085026 75 50 1.0 2.0 0.00 0.00 0.00 76 1014.7
20260905084024 76 45 1.0 2.0 0.00 0.00 0.00 74 1014.8
20260905083022 76 43 2.0 2.0 0.00 0.00 0.00 74 1014.8
20260905082041 77 47 2.0 3.0 0.00 0.00 0.00 73 1014.6
20260905081019 76 50 1.0 3.0 0.00 0.00 0.00 73 1014.7
20260905080017 77 53 1.0 2.0 0.00 0.00 0.00 73 1014.7
20260905075035 77 82 0.0 2.0 0.00 0.00 0.00 72 1014.8
20260905074033 77 86 1.0 2.0 0.00 0.00 0.00 72 1014.7
20260905073032 77 91 1.0 2.0 0.00 0.00 0.00 72 1014.8
20260905072030 78 101 1.0 2.0 0.00 0.00 0.00 71 1014.8
20260905071028 78 90 1.0 2.0 0.00 0.00 0.00 71 1015.0
20260905070026 77 95 1.0 2.0 0.00 0.00 0.00 72 1015.0
20260905065104 77 37 1.0 2.0 0.00 0.00 0.00 72 1015.1
20260905064022 77 34 1.0 2.0 0.00 0.00 0.00 71 1015.1
20260905063020 78 66 0.0 1.0 0.00 0.00 0.00 70 1015.0
20260905062018 78 22 1.0 2.0 0.00 0.00 0.00 70 1015.1
20260905061016 79 37 1.0 2.0 0.00 0.00 0.00 69 1015.1
20260905060054 79 26 1.0 2.0 0.00 0.00 0.00 68 1015.1
20260905055033 79 65 0.0 2.0 0.00 0.00 0.00 68 1015.2
20260905054031 79 32 0.0 2.0 0.00 0.00 0.00 68 1015.1
20260905053029 80 37 0.0 2.0 0.00 0.00 0.00 67 1015.1
20260905052027 81 18 0.0 2.0 0.00 0.00 0.00 66 1015.1
20260905051025 81 67 0.0 2.0 0.00 0.00 0.00 64 1015.1
20260905050023 81 66 1.0 2.0 0.00 0.00 0.00 63 1015.0
20260905045021 82 24 0.0 1.0 0.00 0.00 0.00 63 1015.0